EST,Max TemperatureF,Mean TemperatureF,Min TemperatureF,Max Dew PointF,MeanDew PointF,Min DewpointF,Max Humidity, Mean Humidity, Min Humidity, Max Sea Level PressureIn, Mean Sea Level PressureIn, Min Sea Level PressureIn, Max VisibilityMiles, Mean VisibilityMiles, Min VisibilityMiles, Max Wind SpeedMPH, Mean Wind SpeedMPH, Max Gust SpeedMPH,PrecipitationIn, CloudCover, Events, WindDirDegrees
2014-1-1,18,15,12,12,8,3,81,75,62,31.09,30.34,30.24,10,3,1,13,7,,0.06,8,Snow,24
2014-1-2,17,12,6,10,7,-4,80,74,63,30.26,30.14,30.05,10,3,1,20,14,30,0.02,8,Snow,29
2014-1-3,15,8,0,3,-3,-7,72,60,45,30.45,30.37,30.19,10,10,10,17,8,24,0.00,1,,257
2014-1-4,33,24,14,23,12,2,72,58,49,30.70,30.06,29.94,10,10,5,23,15,32,0.00,2,Snow,216
2014-1-5,32,29,26,29,27,22,93,86,72,30.07,29.83,29.48,10,2,0,22,5,29,0.42,8,Fog-Snow,48
2014-1-6,23,6,-11,18,-2,-23,80,66,56,30.14,29.85,29.51,10,5,1,28,17,39,0.01,7,Snow,267
2014-1-7,3,-5,-11,-7,-14,-22,68,62,60,30.36,30.25,30.14,10,9,5,21,17,31,0.00,2,Snow,235
2014-1-8,19,10,0,6,1,-6,80,69,57,30.52,30.42,30.35,10,10,10,12,7,,0.00,2,,243
2014-1-9,25,12,0,21,9,-7,92,80,71,31.08,30.49,30.30,10,6,2,6,2,,0.00,5,Snow,124
2014-1-10,39,32,24,37,29,21,93,86,80,30.30,30.12,29.73,7,4,2,10,5,,0.29,8,Rain-Snow,166
2014-1-11,45,40,36,43,38,26,93,86,67,29.65,29.45,29.30,10,5,0,16,11,28,0.17,8,Fog-Rain,226
2014-1-12,39,37,35,30,27,25,79,70,60,29.93,29.84,29.65,10,10,10,16,12,29,0.00,3,,235
2014-1-13,46,42,39,38,34,29,79,68,60,29.77,29.65,29.58,10,10,10,17,14,25,0.00,3,,221
2014-1-14,39,34,28,32,27,17,82,69,52,29.81,29.74,29.68,10,10,7,21,8,36,0.00,4,,234
2014-1-15,33,28,23,19,15,12,74,60,49,30.02,29.91,29.74,10,10,2,24,14,38,0.00,7,Snow,261
2014-1-16,30,24,21,25,19,11,86,75,63,29.96,29.77,29.67,10,5,0,18,13,25,0.00,8,Fog-Snow,193
2014-1-17,33,28,21,27,21,13,86,69,60,29.92,29.78,29.63,10,8,2,17,9,22,0.01,8,Snow,255
2014-1-18,21,16,10,13,9,4,79,72,63,30.69,30.00,29.84,10,8,2,12,8,,0.00,7,Snow,219
2014-1-19,30,24,17,21,16,12,86,72,59,30.51,29.76,29.55,10,9,7,30,9,39,0.00,7,,233
2014-1-20,32,23,14,27,15,4,86,70,51,30.80,29.88,29.53,10,8,1,15,9,21,0.00,8,Rain-Snow,350
2014-1-21,14,8,3,1,-2,-7,67,60,51,30.23,30.15,30.08,10,10,9,15,10,21,0.00,5,,356
2014-1-22,12,6,0,7,0,-8,79,70,54,30.22,30.05,29.95,10,6,2,14,6,18,0.00,6,Snow,204
2014-1-23,17,12,6,7,3,-3,80,68,53,30.50,30.24,29.95,10,7,2,9,6,17,0.00,6,Snow,301
2014-1-24,19,10,1,12,1,-8,80,66,52,30.45,30.01,29.57,10,6,2,29,15,41,0.00,6,Snow,227
2014-1-25,28,18,8,21,13,-6,81,70,43,30.26,29.45,29.29,10,5,0,24,17,34,0.01,7,Snow,284
2014-1-26,28,16,5,25,9,-6,86,73,58,30.04,29.57,29.37,10,6,1,15,8,23,0.00,7,Snow,208
2014-1-27,28,14,0,25,1,-12,86,61,40,30.76,29.91,29.37,10,7,0,17,12,30,0.04,5,Snow,290
2014-1-28,8,0,-7,-4,-9,-13,76,63,52,30.40,30.31,30.20,10,10,10,16,11,25,0.00,0,,237
2014-1-29,19,10,0,3,-3,-11,66,57,47,30.22,30.16,30.09,10,10,9,18,14,26,0.00,0,,239
2014-1-30,28,20,12,21,11,1,81,64,50,30.56,30.01,29.83,10,8,1,22,15,33,0.00,4,Snow,211
2014-1-31,36,33,30,25,22,19,80,65,57,30.15,30.04,29.86,10,9,4,16,9,22,0.00,7,Snow,241